TimeCST,TemperatureF,Dew PointF,Humidity,Sea Level PressureIn,VisibilityMPH,Wind Direction,Wind SpeedMPH,Gust SpeedMPH,PrecipitationIn,Events,Conditions,WindDirDegrees,DateUTC
12:15 AM,38.5,38.5,100,30.37,10.0,NE,4.6,-,N/A,,Clear,50,2013-01-19 06:15:00
12:35 AM,38.1,38.1,100,30.36,10.0,NE,4.6,-,N/A,,Clear,50,2013-01-19 06:35:00
12:55 AM,38.7,38.7,100,30.36,10.0,NE,4.6,-,N/A,,Clear,50,2013-01-19 06:55:00
1:15 AM,38.8,38.8,100,30.36,10.0,NE,3.5,-,N/A,,Clear,50,2013-01-19 07:15:00
1:35 AM,38.8,38.8,100,30.36,10.0,ENE,3.5,-,N/A,,Clear,60,2013-01-19 07:35:00
1:55 AM,38.5,38.5,100,30.35,10.0,ENE,4.6,-,N/A,,Clear,70,2013-01-19 07:55:00
2:15 AM,38.5,38.5,100,30.34,10.0,NE,3.5,-,N/A,,Clear,40,2013-01-19 08:15:00
2:35 AM,39.6,39.6,100,30.33,10.0,ENE,4.6,-,N/A,,Clear,60,2013-01-19 08:35:00
2:55 AM,38.8,38.8,100,30.33,10.0,NE,4.6,-,N/A,,Clear,50,2013-01-19 08:55:00
3:15 AM,39.2,39.2,100,30.32,10.0,NE,5.8,-,N/A,,Clear,50,2013-01-19 09:15:00
3:35 AM,40.5,40.5,100,30.32,10.0,Calm,Calm,-,N/A,,Clear,0,2013-01-19 09:35:00
3:55 AM,40.6,40.6,100,30.31,10.0,NE,3.5,-,N/A,,Clear,50,2013-01-19 09:55:00
4:15 AM,38.7,38.7,100,30.31,10.0,NE,4.6,-,N/A,,Clear,50,2013-01-19 10:15:00
4:35 AM,38.7,38.7,100,30.30,10.0,NE,4.6,-,N/A,,Clear,50,2013-01-19 10:35:00
4:55 AM,40.1,40.1,100,30.31,10.0,ENE,3.5,-,N/A,,Clear,60,2013-01-19 10:55:00
5:15 AM,39.9,39.9,100,30.30,10.0,ENE,5.8,-,N/A,,Clear,60,2013-01-19 11:15:00
5:35 AM,40.3,40.3,100,30.29,10.0,East,5.8,-,N/A,,Clear,80,2013-01-19 11:35:00
5:55 AM,40.5,40.5,100,30.29,10.0,ENE,4.6,-,N/A,,Clear,60,2013-01-19 11:55:00
7:15 AM,42.1,42.1,100,30.30,7.0,Calm,Calm,-,N/A,,Clear,0,2013-01-19 13:15:00
7:55 AM,43.5,43.5,100,30.31,7.0,ENE,5.8,-,N/A,,Clear,70,2013-01-19 13:55:00
8:15 AM,45.7,45.7,100,30.31,10.0,East,4.6,-,N/A,,Clear,90,2013-01-19 14:15:00
8:35 AM,47.7,47.7,100,30.32,10.0,East,3.5,-,N/A,,Clear,100,2013-01-19 14:35:00
8:55 AM,49.6,49.6,100,30.32,10.0,Calm,Calm,-,N/A,,Clear,0,2013-01-19 14:55:00
9:35 AM,54.3,51.8,91,30.33,10.0,ESE,6.9,-,N/A,,Clear,120,2013-01-19 15:35:00
9:55 AM,57.6,51.4,80,30.33,10.0,ESE,8.1,-,N/A,,Clear,120,2013-01-19 15:55:00
10:15 AM,60.8,51.8,72,30.33,10.0,ESE,6.9,-,N/A,,Clear,120,2013-01-19 16:15:00
10:35 AM,64.4,50.9,62,30.33,10.0,SE,9.2,-,N/A,,Clear,130,2013-01-19 16:35:00
11:15 AM,67.1,47.1,49,30.30,10.0,SE,9.2,-,N/A,,Clear,140,2013-01-19 17:15:00
11:35 AM,69.8,46.4,43,30.29,10.0,SSE,9.2,16.1,N/A,,Clear,160,2013-01-19 17:35:00
11:55 AM,69.8,44.6,40,30.28,10.0,SSE,6.9,-,N/A,,Clear,150,2013-01-19 17:55:00
12:15 PM,69.8,44.8,41,30.28,10.0,SSW,6.9,-,N/A,,Clear,200,2013-01-19 18:15:00
12:35 PM,70.3,45.0,40,30.27,10.0,South,9.2,-,N/A,,Clear,180,2013-01-19 18:35:00
12:55 PM,70.2,46.2,42,30.25,10.0,South,8.1,-,N/A,,Clear,190,2013-01-19 18:55:00
1:15 PM,70.5,46.4,42,30.24,10.0,SSW,5.8,-,N/A,,Clear,200,2013-01-19 19:15:00
1:35 PM,69.8,44.6,40,30.23,10.0,SSW,8.1,-,N/A,,Clear,210,2013-01-19 19:35:00
1:55 PM,71.1,44.2,38,30.23,10.0,SSW,9.2,-,N/A,,Clear,210,2013-01-19 19:55:00
2:15 PM,71.6,46.4,41,30.21,10.0,South,5.8,-,N/A,,Scattered Clouds,190,2013-01-19 20:15:00
2:35 PM,70.9,46.6,42,30.21,10.0,SSW,5.8,-,N/A,,Scattered Clouds,200,2013-01-19 20:35:00
2:55 PM,70.0,46.8,43,30.21,10.0,South,6.9,-,N/A,,Scattered Clouds,170,2013-01-19 20:55:00
3:15 PM,68.9,47.7,47,30.21,10.0,South,10.4,-,N/A,,Mostly Cloudy,190,2013-01-19 21:15:00
3:35 PM,68.0,48.0,49,30.21,10.0,South,6.9,-,N/A,,Mostly Cloudy,180,2013-01-19 21:35:00
3:55 PM,68.4,48.2,48,30.20,10.0,South,5.8,-,N/A,,Mostly Cloudy,170,2013-01-19 21:55:00
4:15 PM,68.2,48.4,49,30.21,10.0,South,5.8,-,N/A,,Mostly Cloudy,190,2013-01-19 22:15:00
4:35 PM,66.4,48.9,53,30.21,10.0,South,8.1,-,N/A,,Mostly Cloudy,190,2013-01-19 22:35:00
4:55 PM,66.2,49.8,55,30.21,10.0,South,9.2,-,N/A,,Overcast,170,2013-01-19 22:55:00
5:15 PM,66.2,50.2,56,30.20,10.0,South,9.2,-,N/A,,Scattered Clouds,180,2013-01-19 23:15:00
5:35 PM,64.9,50.7,60,30.20,10.0,SSE,4.6,-,N/A,,Scattered Clouds,160,2013-01-19 23:35:00
5:55 PM,61.9,50.5,66,30.20,10.0,SSE,5.8,-,N/A,,Scattered Clouds,160,2013-01-19 23:55:00
6:15 PM,59.0,50.4,73,30.20,10.0,SSE,5.8,-,N/A,,Clear,150,2013-01-20 00:15:00
6:35 PM,57.2,50.5,78,30.21,10.0,SSE,5.8,-,N/A,,Clear,150,2013-01-20 00:35:00
6:55 PM,56.1,51.1,83,30.21,10.0,SE,4.6,-,N/A,,Clear,140,2013-01-20 00:55:00
7:15 PM,55.4,51.3,86,30.21,10.0,SE,8.1,-,N/A,,Clear,140,2013-01-20 01:15:00
7:35 PM,55.0,51.8,89,30.23,10.0,ESE,5.8,-,N/A,,Clear,120,2013-01-20 01:35:00
7:55 PM,53.6,51.8,94,30.23,10.0,ESE,4.6,-,N/A,,Clear,120,2013-01-20 01:55:00
8:15 PM,54.7,53.2,95,30.24,10.0,ESE,4.6,-,N/A,,Clear,120,2013-01-20 02:15:00
8:35 PM,54.0,54.0,100,30.24,10.0,ESE,4.6,-,N/A,,Clear,120,2013-01-20 02:35:00
8:55 PM,53.8,53.8,100,30.24,10.0,ESE,3.5,-,N/A,,Clear,110,2013-01-20 02:55:00
9:15 PM,53.4,53.4,100,30.24,10.0,ESE,4.6,-,N/A,,Clear,120,2013-01-20 03:15:00
9:35 PM,52.9,52.9,100,30.24,10.0,ESE,3.5,-,N/A,,Clear,120,2013-01-20 03:35:00
9:55 PM,50.7,50.7,100,30.24,0.8,Calm,Calm,-,N/A,,Mist,0,2013-01-20 03:55:00
10:15 PM,50.9,50.9,100,30.24,4.0,Calm,Calm,-,N/A,,Clear,0,2013-01-20 04:15:00
10:35 PM,49.1,49.1,100,30.24,1.0,ENE,3.5,-,N/A,,Mist,60,2013-01-20 04:35:00
10:55 PM,46.9,46.9,100,30.25,0.2,Calm,Calm,-,N/A,Fog,Fog,0,2013-01-20 04:55:00
11:15 PM,47.5,47.5,100,30.25,0.2,Calm,Calm,-,N/A,Fog,Fog,0,2013-01-20 05:15:00
11:35 PM,46.8,46.8,100,30.25,0.8,Calm,Calm,-,N/A,,Mist,0,2013-01-20 05:35:00
11:55 PM,45.5,45.5,100,30.25,0.2,Calm,Calm,-,N/A,Fog,Fog,0,2013-01-20 05:55:00